Location: Unspecified
(47.4660°N, 0.0000°E)
Time: 20:34:45
(UTC+00:00)

NOAA 16 DEB - Visible Passes

Search period start: 04 April 2026 00:00
Search period end: 14 April 2026 00:00
Orbit: 693 x 746 km, 99.0° (Epoch: 29 March)

Date Brightness Start Highest point End Pass type
(mag) Time Alt. Az. Time Alt. Az. Time Alt. Az.
4 Apr ? 20:35:00 10° N 20:39:28 35° WNW 20:43:58 10° SW visible
5 Apr ? 19:44:25 10° NNE 19:49:24 87° ESE 19:54:24 10° SSW visible
5 Apr ? 21:23:51 10° NNW 21:26:44 16° NW 21:29:37 10° W visible
6 Apr ? 20:32:26 10° N 20:36:59 37° WNW 20:41:32 10° SW visible
7 Apr ? 19:41:52 10° NNE 19:46:52 82° ESE 19:51:51 10° SSW visible
7 Apr ? 21:21:11 10° NNW 21:24:14 17° WNW 21:27:17 10° W visible
8 Apr ? 20:29:49 10° N 20:34:26 40° WNW 20:39:04 10° SW visible
9 Apr ? 19:39:17 10° NNE 19:44:17 77° ESE 19:49:16 10° S visible
9 Apr ? 21:18:27 10° NNW 21:21:41 18° WNW 21:24:54 10° W visible
10 Apr ? 20:27:09 10° N 20:31:50 42° WNW 20:36:31 10° SW visible
11 Apr ? 19:36:38 10° NNE 19:41:38 72° ESE 19:46:35 10° S visible
11 Apr ? 21:15:42 10° NNW 21:19:05 19° WNW 21:22:26 10° W visible
12 Apr ? 20:24:26 10° N 20:29:11 45° WNW 20:33:54 10° SW visible
13 Apr ? 19:33:56 10° NNE 19:38:56 67° ESE 19:43:52 10° S visible
13 Apr ? 21:12:53 10° NNW 21:16:24 20° WNW 21:19:55 10° WSW visible
